| time (UTC) | temp F | wind direction | speed knots | gust knots | rain 1hr in | rain 24hr in | rain mn in | humidity % | barometer mb |
| 20260506044548 | 0 | 282 | 3.5 | 6.1 | 0.00 | 0.26 | 0.00 | 1011.3 | |
| 20260506043040 | 0 | 355 | 4.3 | 7.8 | 0.00 | 0.26 | 0.00 | 1011.2 | |
| 20260506041536 | 0 | 355 | 5.2 | 9.6 | 0.00 | 0.26 | 0.00 | 1011.1 | |
| 20260506040038 | 0 | 296 | 0.0 | 9.6 | 0.00 | 0.26 | 0.00 | 1011.1 | |
| 20260506034529 | 0 | 258 | 1.7 | 4.3 | 0.00 | 0.26 | 0.00 | 1010.9 | |
| 20260506033022 | 0 | 258 | 0.0 | 4.3 | 0.00 | 0.26 | 0.00 | 1010.8 | |
| 20260506031517 | 0 | 258 | 2.6 | 5.2 | 0.00 | 0.26 | 0.00 | 1010.9 | |
| 20260506030014 | 0 | 259 | 4.3 | 7.0 | 0.00 | 0.26 | 0.00 | 1010.8 | |
| 20260506024509 | 0 | 259 | 0.9 | 5.2 | 0.00 | 0.26 | 0.00 | 1011.0 | |
| 20260506023004 | 0 | 259 | 0.0 | 7.0 | 0.00 | 0.26 | 0.00 | 1011.1 | |
| 20260506021613 | 0 | 265 | 0.0 | 3.5 | 0.00 | 0.26 | 0.00 | 1011.1 | |
| 20260506020055 | 0 | 265 | 1.7 | 4.3 | 0.00 | 0.26 | 0.00 | 1011.1 | |
| 20260506014551 | 0 | 265 | 0.0 | 3.5 | 0.00 | 0.26 | 0.00 | 1011.1 | |
| 20260506013046 | 0 | 265 | 0.0 | 0.0 | 0.00 | 0.26 | 0.00 | 1010.9 | |
| 20260506011542 | 0 | 265 | 0.0 | 0.0 | 0.00 | 0.26 | 0.00 | 1010.9 | |
| 20260506010048 | 0 | 265 | 2.6 | 4.3 | 0.00 | 0.26 | 0.00 | 1011.0 | |
| 20260506004533 | 0 | 265 | 0.0 | 0.9 | 0.00 | 0.27 | 0.00 | 1011.0 | |
| 20260506003029 | 0 | 265 | 1.7 | 4.3 | 0.00 | 0.27 | 0.00 | 1010.9 | |
| 20260506001524 | 0 | 265 | 0.0 | 0.0 | 0.00 | 0.27 | 0.00 | 1011.1 | |
| 20260506000020 | 0 | 265 | 0.9 | 7.0 | 0.00 | 0.27 | 0.00 | 1011.2 | |
| 20260505234531 | 0 | 292 | 0.0 | 1.7 | 0.00 | 0.27 | 0.00 | 1011.2 | |
| 20260505233011 | 0 | 292 | 0.0 | 2.6 | 0.00 | 0.27 | 0.00 | 1011.2 | |
| 20260505231507 | 0 | 292 | 0.0 | 3.5 | 0.00 | 0.27 | 0.00 | 1011.2 | |
| 20260505230002 | 0 | 292 | 1.7 | 5.2 | 0.00 | 0.27 | 0.00 | 1011.2 | |
| 20260505224559 | 0 | 292 | 0.0 | 1.7 | 0.00 | 0.28 | 0.00 | 1011.3 | |
| 20260505223054 | 0 | 292 | 0.0 | 3.5 | 0.00 | 0.28 | 0.00 | 1011.2 | |
| 20260505221550 | 0 | 292 | 0.0 | 3.5 | 0.00 | 0.28 | 0.00 | 1011.3 | |
| 20260505220049 | 0 | 292 | 0.0 | 4.3 | 0.00 | 0.28 | 0.00 | 1011.4 | |
| 20260505214601 | 0 | 292 | 0.0 | 3.5 | 0.00 | 0.28 | 0.28 | 1011.3 | |
| 20260505213037 | 0 | 292 | 0.0 | 4.3 | 0.00 | 0.28 | 0.28 | 1011.4 | |
| 20260505211532 | 0 | 292 | 0.0 | 3.5 | 0.00 | 0.28 | 0.28 | 1011.3 | |
| 20260505210031 | 0 | 292 | 0.0 | 4.3 | 0.00 | 0.28 | 0.28 | 1011.2 | |
| 20260505204531 | 0 | 292 | 0.0 | 4.3 | 0.00 | 0.30 | 0.28 | 1011.2 | |
| 20260505203036 | 0 | 292 | 2.6 | 7.0 | 0.00 | 0.30 | 0.28 | 1011.2 | |
| 20260505201530 | 0 | 297 | 4.3 | 7.8 | 0.00 | 0.30 | 0.28 | 1011.1 | |
| 20260505200022 | 0 | 308 | 4.3 | 10.4 | 0.00 | 0.30 | 0.28 | 1011.3 | |
| 20260505194518 | 0 | 311 | 0.0 | 1.7 | 0.00 | 0.31 | 0.28 | 1011.1 | |
| 20260505193016 | 0 | 311 | 1.7 | 4.3 | 0.00 | 0.31 | 0.28 | 1010.9 | |
| 20260505191517 | 0 | 311 | 0.9 | 4.3 | 0.00 | 0.31 | 0.28 | 1010.8 | |
| 20260505190015 | 0 | 311 | 1.7 | 2.6 | 0.00 | 0.31 | 0.28 | 1010.8 | |
| 20260505184515 | 0 | 311 | 2.6 | 5.2 | 0.00 | 0.31 | 0.28 | 1010.7 | |
| 20260505183018 | 0 | 311 | 0.9 | 6.1 | 0.02 | 0.31 | 0.28 | 1010.8 | |
| 20260505181514 | 0 | 306 | 3.5 | 7.0 | 0.02 | 0.31 | 0.28 | 1010.8 | |
| 20260505180014 | 0 | 305 | 4.3 | 9.6 | 0.02 | 0.31 | 0.28 | 1010.8 | |
| 20260505174513 | 0 | 289 | 2.6 | 9.6 | 0.02 | 0.31 | 0.28 | 1010.8 | |
| 20260505173003 | 0 | 271 | 4.3 | 12.2 | 0.00 | 0.30 | 0.26 | 1011.0 | |
| 20260505171558 | 0 | 279 | 3.5 | 8.7 | 0.00 | 0.30 | 0.26 | 1010.6 | |
| 20260505170055 | 0 | 344 | 2.6 | 8.7 | 0.00 | 0.30 | 0.26 | 1010.4 | |
| 20260505164551 | 0 | 355 | 6.1 | 10.4 | 0.00 | 0.31 | 0.26 | 1010.4 | |
| 20260505163047 | 0 | 309 | 2.6 | 10.4 | 0.00 | 0.31 | 0.26 | 1010.5 | |
| 20260505161541 | 0 | 286 | 1.7 | 10.4 | 0.00 | 0.31 | 0.26 | 1010.5 | |
| 20260505153029 | 0 | 188 | 0.9 | 7.0 | 0.00 | 0.32 | 0.26 | 1010.2 | |
| 20260505151522 | 0 | 163 | 5.2 | 7.8 | 0.00 | 0.32 | 0.26 | 1010.1 | |
| 20260505124503 | 0 | 338 | 0.0 | 3.5 | 0.00 | 0.32 | 0.26 | 1009.8 | |
| 20260505123105 | 0 | 338 | 0.9 | 6.1 | 0.00 | 0.32 | 0.26 | 1009.8 | |
| 20260505121556 | 0 | 338 | 4.3 | 7.8 | 0.00 | 0.32 | 0.26 | 1009.9 | |
| 20260505120051 | 0 | 324 | 5.2 | 7.8 | 0.00 | 0.32 | 0.26 | 1009.8 | |
| 20260505114546 | 0 | 316 | 4.3 | 9.6 | 0.01 | 0.33 | 0.26 | 1010.0 | |
| 20260505113041 | 0 | 317 | 6.1 | 8.7 | 0.02 | 0.33 | 0.26 | 1009.9 | |
| 20260505111538 | 0 | 308 | 5.2 | 7.0 | 0.03 | 0.33 | 0.26 | 1009.8 | |
| 20260505101530 | 0 | 333 | 2.6 | 5.2 | 0.07 | 0.31 | 0.23 | 1009.8 | |
| 20260505100021 | 0 | 333 | 3.5 | 8.7 | 0.07 | 0.28 | 0.21 | 1009.8 | |
| 20260505094510 | 0 | 340 | 5.2 | 7.8 | 0.07 | 0.28 | 0.20 | 1009.6 | |
| 20260505093020 | 0 | 336 | 6.1 | 10.4 | 0.07 | 0.27 | 0.18 | 1009.5 | |
| 20260505091501 | 0 | 308 | 7.0 | 16.5 | 0.06 | 0.24 | 0.16 | 1009.5 | |
| 20260505090057 | 0 | 183 | 1.7 | 5.2 | 0.06 | 0.23 | 0.14 | 1009.6 | |
| 20260505084554 | 0 | 182 | 3.5 | 10.4 | 0.06 | 0.21 | 0.13 | 1009.6 | |
| 20260505083049 | 0 | 178 | 7.0 | 12.2 | 0.05 | 0.20 | 0.11 | 1009.2 | |
| 20260505081555 | 0 | 182 | 7.8 | 10.4 | 0.04 | 0.18 | 0.09 | 1009.1 | |
| 20260505080039 | 0 | 171 | 9.6 | 13.0 | 0.04 | 0.17 | 0.09 | 1009.1 | |
| 20260505074537 | 0 | 244 | 2.6 | 7.0 | 0.03 | 0.18 | 0.07 | 1009.3 | |
| 20260505073034 | 0 | 173 | 4.3 | 7.0 | 0.03 | 0.17 | 0.06 | 1009.2 | |
| 20260505071526 | 0 | 173 | 4.3 | 7.0 | 0.03 | 0.17 | 0.06 | 1009.1 | |
| 20260505070022 | 0 | 173 | 5.2 | 7.8 | 0.02 | 0.16 | 0.05 | 1009.0 | |
| 20260505064517 | 0 | 173 | 2.6 | 4.3 | 0.02 | 0.16 | 0.04 | 1009.1 | |
| 20260505063016 | 0 | 173 | 0.0 | 3.5 | 0.01 | 0.15 | 0.03 | 1009.2 | |
| 20260505061511 | 0 | 173 | 0.0 | 4.3 | 0.00 | 0.14 | 0.02 | 1009.2 | |
| 20260505060007 | 0 | 173 | 0.0 | 6.1 | 0.00 | 0.14 | 0.02 | 1009.2 | |
| 20260505054501 | 0 | 173 | 3.5 | 8.7 | 0.00 | 0.16 | 0.02 | 1009.3 | |
| 20260505053059 | 0 | 189 | 6.1 | 8.7 | 0.00 | 0.16 | 0.02 | 1009.2 | |
| 20260505051611 | 0 | 196 | 0.0 | 3.5 | 0.01 | 0.16 | 0.02 | 1009.3 |